Погода в Буняковке

Россия / Омская область     54°07′43″N   73°09′43″E
темп.,
°C
ветер,
м/с
пор.,
м/с
влажн.,
%
обл.,
%
осадки,
мм/ч
давл.,
гПа
погр.,
м
20 апреля, вт
вт2000:00−4ссв46485 0.0 1031613
03:00−5ссв46483 0.0 10311202
06:00−6с45475 0.0 10321216
09:00−5ссв44425 0.0 10331206
12:00−2с33340 0.0 10321293
15:000сз33300 0.0 10311403
18:00+1зсз45300 0.0 10291341
21:00−1з36465 0.0 1029120
21 апреля, ср
ср2100:00−1зюз5104913 0.0 1028275
03:00−1зюз6134785 0.0 1026402
06:000з71449100 0.0 1025426
09:00+3сз795892 0.0 1025706
12:00+5с686097 0.0 10261355
15:00+7ссз683918 0.0 10271859
18:00+7с6841100 0.0 10291973
21:00+3ссв510585 0.0 1032370
22 апреля, чт
чт2200:000св48742 0.0 1035295
03:00−1ссв36805 0.0 1037206
06:00−1св36835 0.0 1039206
09:00+1всв45575 0.0 1041753
12:00+4всв33425 0.0 10421216
15:00+6в33373 0.0 10421459
18:00+7в33365 0.0 10421487
21:00+4вюв345126 0.0 104479
23 апреля, пт
пт2300:00+2юв49610 0.0 1044217
03:00+1юв48670 0.0 1044173
06:000юв37710 0.0 1044136
09:00+4ююв56505 0.0 1045549
12:00+7ююв55385 0.0 10441439
15:00+9ююв55335 0.0 10421550
18:00+9ююв45325 0.0 10411695
21:00+6юв48464 0.0 1041167
24 апреля, сб
сб2400:00+4ююв485393 0.0 1040167
03:00+3юв49605 0.0 1039179
06:00+2ююв496155 0.0 1038200
09:00+6ююв694453 0.0 1037548
12:00+9ююв67315 0.0 10361376
15:00+11ююв662734 0.0 10331631
18:00+11ююв66275 0.0 10321626
21:00+8юв5104016 0.0 1031256